QPF
0.00 0.00 0.00 0.00 0.01 0.02 0.05 0.09 0.14 0.11 0.10 0.16 0.21 0.20 0.11 0.04 0.01 0.01 0.01 0.00 0.00 0.00 0.00 0.00 0.00 0.00 0.00 0.01 0.02 0.02 0.03 0.03 0.04 0.04 0.03 0.01 0.00 0.00 0.00 0.00 0.00 0.00 0.00 0.00
0.00 0.00 0.00 0.00 0.00 0.00 0.01 0.02 0.05 0.07 0.11 0.15 0.13 0.13 0.08 0.03 0.02 0.01 0.01 0.00 0.00 0.00 0.00 0.00 0.00 0.01 0.01 0.02 0.02 0.02 0.02 0.02 0.03 0.05 0.04 0.02 0.01 0.00 0.00 0.00 0.00 0.00 0.00 0.00
0.00 0.00 0.01 0.01 0.00 0.00 0.01 0.01 0.05 0.12 0.16 0.14 0.11 0.09 0.06 0.03 0.02 0.01 0.01 0.00 0.00 0.00 0.00 0.00 0.01 0.01 0.02 0.02 0.01 0.01 0.02 0.01 0.02 0.05 0.07 0.04 0.01 0.01 0.01 0.01 0.01 0.01 0.01 0.00
0.00 0.01 0.03 0.02 0.00 0.00 0.01 0.01 0.02 0.07 0.08 0.08 0.07 0.05 0.02 0.01 0.00 0.00 0.00 0.00 0.01 0.00 0.00 0.00 0.01 0.03 0.04 0.03 0.03 0.03 0.02 0.02 0.02 0.02 0.02 0.02 0.02 0.02 0.03 0.04 0.04 0.04 0.03 0.01
0.00 0.01 0.01 0.00 0.00 0.00 0.02 0.02 0.01 0.02 0.03 0.02 0.01 0.02 0.03 0.00 0.00 0.00 0.00 0.00 0.00 0.00 0.00 0.01 0.03 0.06 0.08 0.09 0.08 0.07 0.04 0.03 0.02 0.02 0.02 0.02 0.01 0.02 0.02 0.04 0.04 0.05 0.05 0.04
0.00 0.01 0.01 0.00 0.00 0.00 0.01 0.03 0.01 0.00 0.01 0.01 0.01 0.07 0.09 0.03 0.00 0.00 0.00 0.00 0.01 0.01 0.01 0.04 0.06 0.08 0.11 0.13 0.12 0.09 0.05 0.03 0.03 0.03 0.03 0.03 0.01 0.01 0.02 0.02 0.02 0.03 0.04 0.04
0.00 0.00 0.00 0.00 0.00 0.00 0.02 0.06 0.01 0.00 0.00 0.00 0.02 0.04 0.05 0.02 0.00 0.00 0.00 0.01 0.01 0.02 0.03 0.04 0.04 0.05 0.08 0.10 0.09 0.05 0.03 0.03 0.04 0.05 0.06 0.06 0.05 0.05 0.05 0.06 0.05 0.03 0.03 0.04
0.00 0.00 0.00 0.00 0.00 0.00 0.01 0.01 0.00 0.00 0.00 0.00 0.00 0.00 0.00 0.00 0.00 0.00 0.00 0.00 0.01 0.03 0.05 0.04 0.02 0.03 0.05 0.05 0.04 0.02 0.02 0.02 0.02 0.04 0.06 0.09 0.15 0.15 0.14 0.12 0.07 0.05 0.04 0.05
0.00 0.00 0.00 0.00 0.00 0.00 0.00 0.00 0.00 0.00 0.00 0.00 0.00 0.00 0.00 0.00 0.00 0.00 0.00 0.00 0.01 0.03 0.04 0.04 0.03 0.04 0.05 0.03 0.02 0.01 0.01 0.02 0.02 0.02 0.05 0.07 0.11 0.14 0.13 0.09 0.05 0.04 0.05 0.05
0.00 0.00 0.00 0.00 0.00 0.00 0.00 0.00 0.00 0.00 0.00 0.00 0.00 0.00 0.00 0.00 0.00 0.00 0.00 0.01 0.02 0.04 0.07 0.09 0.07 0.05 0.04 0.02 0.01 0.01 0.01 0.01 0.02 0.02 0.03 0.03 0.03 0.04 0.05 0.04 0.03 0.02 0.03 0.04
0.00 0.00 0.00 0.00 0.00 0.00 0.00 0.00 0.00 0.00 0.00 0.00 0.00 0.00 0.00 0.00 0.00 0.00 0.00 0.01 0.02 0.06 0.09 0.09 0.08 0.06 0.03 0.02 0.03 0.05 0.04 0.04 0.04 0.03 0.03 0.03 0.02 0.02 0.01 0.01 0.01 0.01 0.01 0.02
0.00 0.00 0.00 0.00 0.00 0.00 0.00 0.00 0.00 0.00 0.00 0.00 0.00 0.00 0.00 0.00 0.00 0.00 0.00 0.00 0.01 0.04 0.05 0.05 0.05 0.05 0.04 0.04 0.04 0.07 0.08 0.08 0.07 0.06 0.05 0.05 0.04 0.02 0.01 0.01 0.01 0.01 0.01 0.02
0.00 0.00 0.00 0.00 0.00 0.00 0.00 0.00 0.00 0.00 0.00 0.00 0.00 0.00 0.00 0.00 0.00 0.00 0.00 0.00 0.00 0.01 0.02 0.02 0.02 0.02 0.02 0.01 0.02 0.02 0.03 0.04 0.05 0.04 0.04 0.04 0.03 0.02 0.01 0.00 0.00 0.00 0.00 0.00
0.00 0.00 0.00 0.00 0.00 0.00 0.00 0.00 0.00 0.00 0.00 0.00 0.00 0.00 0.00 0.00 0.00 0.00 0.00 0.00 0.00 0.00 0.00 0.00 0.00 0.00 0.00 0.00 0.00 0.00 0.00 0.00 0.00 0.01 0.00 0.01 0.01 0.01 0.01 0.00 0.00 0.00 0.00 0.00
0.00 0.00 0.00 0.00 0.00 0.00 0.00 0.00 0.00 0.00 0.00 0.00 0.00 0.00 0.00 0.00 0.00 0.00 0.00 0.00 0.00 0.00 0.00 0.00 0.00 0.00 0.00 0.00 0.00 0.00 0.00 0.00 0.00 0.00 0.00 0.00 0.00 0.00 0.00 0.00 0.00 0.00 0.00 0.00
0.00 0.00 0.00 0.00 0.00 0.00 0.00 0.00 0.00 0.00 0.00 0.00 0.00 0.00 0.00 0.00 0.00 0.00 0.00 0.00 0.00 0.00 0.00 0.00 0.00 0.00 0.00 0.00 0.00 0.00 0.00 0.00 0.00 0.00 0.00 0.00 0.00 0.00 0.00 0.00 0.00 0.00 0.00 0.00
0.00 0.00 0.00 0.00 0.00 0.00 0.00 0.00 0.00 0.00 0.00 0.00 0.00 0.00 0.00 0.00 0.00 0.00 0.00 0.00 0.00 0.00 0.00 0.00 0.00 0.00 0.00 0.00 0.00 0.00 0.00 0.00 0.00 0.00 0.00 0.00 0.00 0.00 0.00 0.00 0.00 0.00 0.00 0.00
0.00 0.00 0.00 0.00 0.00 0.00 0.00 0.00 0.00 0.00 0.00 0.00 0.00 0.00 0.00 0.00 0.00 0.00 0.00 0.00 0.00 0.00 0.00 0.00 0.00 0.00 0.00 0.00 0.00 0.00 0.00 0.00 0.00 0.00 0.00 0.00 0.00 0.00 0.00 0.00 0.00 0.00 0.00 0.00
0.00 0.00 0.00 0.00 0.00 0.00 0.00 0.00 0.00 0.00 0.00 0.00 0.00 0.00 0.00 0.00 0.00 0.00 0.00 0.00 0.00 0.00 0.00 0.00 0.00 0.00 0.00 0.00 0.00 0.00 0.00 0.00 0.00 0.00 0.00 0.00 0.00 0.00 0.00 0.00 0.00 0.00 0.00 0.00
0.00 0.00 0.00 0.00 0.00 0.00 0.00 0.00 0.00 0.00 0.00 0.00 0.00 0.00 0.00 0.00 0.00 0.00 0.00 0.00 0.00 0.00 0.00 0.00 0.00 0.00 0.00 0.00 0.00 0.00 0.00 0.00 0.00 0.00 0.00 0.00 0.00 0.00 0.00 0.00 0.00 0.00 0.00 0.00
0.00 0.00 0.00 0.00 0.00 0.00 0.00 0.00 0.00 0.00 0.00 0.00 0.00 0.00 0.00 0.00 0.00 0.00 0.00 0.00 0.00 0.00 0.00 0.00 0.00 0.00 0.00 0.00 0.00 0.00 0.00 0.00 0.00 0.00 0.00 0.00 0.00 0.00 0.00 0.00 0.00 0.00 0.00 0.00
0.00 0.00 0.00 0.00 0.00 0.00 0.00 0.00 0.00 0.00 0.00 0.00 0.00 0.00 0.00 0.00 0.00 0.00 0.00 0.00 0.00 0.00 0.00 0.00 0.00 0.00 0.00 0.00 0.00 0.00 0.00 0.00 0.00 0.00 0.00 0.00 0.00 0.00 0.00 0.00 0.01 0.01 0.01 0.00
0.00 0.00 0.00 0.00 0.00 0.00 0.00 0.00 0.00 0.00 0.00 0.00 0.00 0.00 0.00 0.00 0.00 0.00 0.00 0.00 0.00 0.00 0.00 0.00 0.00 0.00 0.00 0.00 0.00 0.00 0.00 0.00 0.00 0.00 0.00 0.00 0.00 0.00 0.01 0.01 0.02 0.01 0.01 0.00
0.00 0.00 0.00 0.00 0.00 0.00 0.00 0.00 0.00 0.00 0.00 0.00 0.00 0.00 0.00 0.00 0.00 0.00 0.00 0.00 0.00 0.00 0.00 0.00 0.00 0.00 0.00 0.00 0.00 0.00 0.00 0.00 0.00 0.00 0.00 0.00 0.00 0.01 0.01 0.01 0.01 0.01 0.00 0.00
0.00 0.00 0.00 0.01 0.01 0.01 0.01 0.00 0.00 0.00 0.00 0.00 0.00 0.00 0.00 0.00 0.00 0.00 0.00 0.00 0.00 0.00 0.00 0.00 0.00 0.00 0.00 0.00 0.00 0.00 0.00 0.00 0.00 0.00 0.00 0.00 0.00 0.01 0.01 0.00 0.00 0.00 0.00 0.00
0.02 0.02 0.03 0.03 0.04 0.03 0.01 0.01 0.00 0.00 0.00 0.00 0.00 0.00 0.00 0.00 0.00 0.00 0.00 0.00 0.00 0.00 0.00 0.00 0.00 0.00 0.00 0.00 0.00 0.00 0.00 0.00 0.00 0.00 0.00 0.00 0.00 0.01 0.01 0.01 0.01 0.00 0.00 0.00
0.02 0.03 0.05 0.04 0.04 0.04 0.03 0.02 0.02 0.01 0.00 0.00 0.00 0.00 0.00 0.00 0.00 0.00 0.00 0.00 0.00 0.00 0.00 0.00 0.00 0.00 0.00 0.00 0.00 0.00 0.00 0.00 0.00 0.00 0.00 0.01 0.01 0.01 0.01 0.01 0.01 0.00 0.00 0.00
MSLP
1011.54 1011.73 1011.95 1012.20 1012.48 1012.75 1012.97 1013.11 1013.13 1013.03 1012.81 1012.49 1012.12 1011.76 1011.46 1011.26 1011.18 1011.23 1011.40 1011.64 1011.92 1012.19 1012.42 1012.58 1012.68 1012.71 1012.71 1012.69 1012.68 1012.68 1012.71 1012.76 1012.83 1012.90 1012.95 1012.98 1012.98 1012.95 1012.91 1012.85 1012.79 1012.73 1012.67 1012.61
1011.67 1011.76 1011.85 1011.94 1012.04 1012.14 1012.24 1012.30 1012.32 1012.28 1012.18 1012.04 1011.88 1011.73 1011.61 1011.56 1011.58 1011.67 1011.82 1012.02 1012.23 1012.43 1012.60 1012.73 1012.80 1012.84 1012.86 1012.86 1012.87 1012.88 1012.92 1012.96 1013.01 1013.06 1013.09 1013.11 1013.12 1013.10 1013.07 1013.03 1012.99 1012.94 1012.90 1012.85
1011.63 1011.66 1011.65 1011.61 1011.57 1011.55 1011.53 1011.53 1011.54 1011.56 1011.57 1011.59 1011.61 1011.65 1011.71 1011.79 1011.90 1012.04 1012.20 1012.36 1012.52 1012.66 1012.78 1012.86 1012.92 1012.95 1012.98 1013.00 1013.03 1013.06 1013.10 1013.14 1013.19 1013.23 1013.26 1013.28 1013.29 1013.29 1013.28 1013.27 1013.24 1013.21 1013.18 1013.13
1011.43 1011.41 1011.33 1011.22 1011.09 1010.97 1010.88 1010.84 1010.84 1010.90 1011.00 1011.14 1011.30 1011.49 1011.69 1011.89 1012.09 1012.28 1012.44 1012.59 1012.71 1012.81 1012.88 1012.93 1012.98 1013.01 1013.05 1013.09 1013.14 1013.19 1013.25 1013.30 1013.36 1013.40 1013.44 1013.47 1013.50 1013.52 1013.53 1013.54 1013.55 1013.54 1013.51 1013.47
1011.10 1011.04 1010.92 1010.76 1010.57 1010.40 1010.27 1010.20 1010.21 1010.29 1010.45 1010.67 1010.94 1011.24 1011.54 1011.83 1012.10 1012.32 1012.51 1012.64 1012.75 1012.82 1012.87 1012.91 1012.96 1013.01 1013.07 1013.14 1013.22 1013.30 1013.38 1013.45 1013.52 1013.58 1013.63 1013.68 1013.72 1013.77 1013.82 1013.86 1013.89 1013.91 1013.90 1013.87
1010.66 1010.57 1010.42 1010.23 1010.03 1009.83 1009.68 1009.60 1009.61 1009.72 1009.91 1010.19 1010.52 1010.89 1011.26 1011.61 1011.92 1012.18 1012.38 1012.53 1012.63 1012.70 1012.75 1012.81 1012.87 1012.95 1013.05 1013.16 1013.28 1013.39 1013.50 1013.60 1013.68 1013.76 1013.82 1013.89 1013.96 1014.03 1014.11 1014.19 1014.26 1014.31 1014.34 1014.33
1010.16 1010.03 1009.86 1009.66 1009.44 1009.25 1009.10 1009.02 1009.04 1009.16 1009.38 1009.69 1010.06 1010.47 1010.88 1011.26 1011.60 1011.89 1012.11 1012.27 1012.39 1012.47 1012.56 1012.64 1012.74 1012.87 1013.01 1013.17 1013.33 1013.49 1013.63 1013.75 1013.85 1013.94 1014.02 1014.10 1014.19 1014.29 1014.40 1014.52 1014.63 1014.72 1014.79 1014.83
1009.62 1009.45 1009.25 1009.03 1008.82 1008.63 1008.50 1008.44 1008.48 1008.62 1008.86 1009.19 1009.58 1010.01 1010.44 1010.84 1011.21 1011.51 1011.75 1011.94 1012.08 1012.20 1012.32 1012.45 1012.61 1012.79 1012.98 1013.19 1013.40 1013.60 1013.77 1013.91 1014.03 1014.12 1014.21 1014.30 1014.40 1014.52 1014.65 1014.81 1014.96 1015.11 1015.23 1015.32
1009.05 1008.82 1008.59 1008.36 1008.16 1007.99 1007.89 1007.86 1007.93 1008.09 1008.36 1008.70 1009.11 1009.56 1010.00 1010.42 1010.80 1011.12 1011.39 1011.60 1011.78 1011.94 1012.10 1012.28 1012.48 1012.72 1012.97 1013.22 1013.47 1013.70 1013.89 1014.05 1014.17 1014.27 1014.36 1014.44 1014.55 1014.68 1014.84 1015.02 1015.22 1015.42 1015.60 1015.75
1008.41 1008.13 1007.87 1007.65 1007.46 1007.32 1007.26 1007.27 1007.38 1007.59 1007.88 1008.26 1008.69 1009.15 1009.61 1010.05 1010.44 1010.78 1011.07 1011.31 1011.52 1011.71 1011.91 1012.14 1012.38 1012.66 1012.95 1013.24 1013.52 1013.77 1013.97 1014.14 1014.26 1014.35 1014.42 1014.50 1014.60 1014.73 1014.91 1015.12 1015.36 1015.61 1015.85 1016.06
1007.67 1007.35 1007.09 1006.87 1006.71 1006.62 1006.61 1006.68 1006.84 1007.09 1007.43 1007.84 1008.31 1008.80 1009.28 1009.74 1010.15 1010.52 1010.82 1011.09 1011.32 1011.54 1011.77 1012.02 1012.30 1012.59 1012.90 1013.21 1013.50 1013.76 1013.97 1014.12 1014.23 1014.30 1014.36 1014.43 1014.52 1014.65 1014.84 1015.07 1015.35 1015.64 1015.93 1016.20
1006.79 1006.47 1006.22 1006.04 1005.92 1005.88 1005.93 1006.06 1006.28 1006.59 1006.98 1007.44 1007.95 1008.47 1008.99 1009.47 1009.92 1010.30 1010.64 1010.92 1011.17 1011.41 1011.65 1011.91 1012.19 1012.49 1012.80 1013.11 1013.39 1013.63 1013.83 1013.97 1014.06 1014.12 1014.16 1014.21 1014.29 1014.42 1014.61 1014.86 1015.15 1015.48 1015.82 1016.13
1005.79 1005.51 1005.30 1005.17 1005.11 1005.13 1005.23 1005.42 1005.70 1006.06 1006.51 1007.01 1007.56 1008.12 1008.68 1009.20 1009.68 1010.09 1010.45 1010.76 1011.03 1011.27 1011.52 1011.77 1012.04 1012.32 1012.61 1012.89 1013.15 1013.38 1013.55 1013.67 1013.74 1013.78 1013.81 1013.85 1013.92 1014.05 1014.23 1014.49 1014.80 1015.15 1015.51 1015.86
1004.73 1004.52 1004.38 1004.31 1004.30 1004.38 1004.53 1004.77 1005.09 1005.49 1005.97 1006.51 1007.09 1007.69 1008.28 1008.84 1009.36 1009.81 1010.21 1010.54 1010.82 1011.08 1011.32 1011.56 1011.81 1012.07 1012.32 1012.57 1012.80 1012.99 1013.14 1013.24 1013.30 1013.33 1013.35 1013.38 1013.44 1013.57 1013.75 1014.01 1014.32 1014.68 1015.06 1015.42
1003.72 1003.59 1003.53 1003.52 1003.57 1003.68 1003.86 1004.12 1004.45 1004.86 1005.35 1005.90 1006.50 1007.12 1007.75 1008.35 1008.90 1009.40 1009.83 1010.20 1010.52 1010.79 1011.03 1011.26 1011.49 1011.72 1011.94 1012.16 1012.35 1012.51 1012.64 1012.72 1012.77 1012.79 1012.81 1012.85 1012.91 1013.04 1013.22 1013.47 1013.79 1014.14 1014.51 1014.87
1002.87 1002.84 1002.85 1002.89 1002.97 1003.09 1003.27 1003.50 1003.80 1004.18 1004.64 1005.17 1005.76 1006.39 1007.03 1007.66 1008.26 1008.80 1009.29 1009.70 1010.06 1010.36 1010.62 1010.85 1011.07 1011.28 1011.47 1011.66 1011.82 1011.96 1012.07 1012.15 1012.19 1012.23 1012.26 1012.30 1012.38 1012.51 1012.69 1012.94 1013.24 1013.58 1013.94 1014.30
1002.29 1002.34 1002.40 1002.47 1002.55 1002.65 1002.77 1002.94 1003.17 1003.47 1003.86 1004.33 1004.88 1005.49 1006.13 1006.78 1007.41 1008.01 1008.55 1009.02 1009.43 1009.77 1010.06 1010.32 1010.54 1010.74 1010.92 1011.09 1011.24 1011.37 1011.47 1011.55 1011.62 1011.67 1011.72 1011.78 1011.88 1012.02 1012.21 1012.45 1012.74 1013.07 1013.41 1013.74
1002.03 1002.14 1002.23 1002.29 1002.33 1002.36 1002.40 1002.46 1002.57 1002.76 1003.04 1003.42 1003.90 1004.46 1005.08 1005.73 1006.39 1007.03 1007.62 1008.16 1008.62 1009.03 1009.37 1009.65 1009.90 1010.11 1010.30 1010.47 1010.62 1010.75 1010.87 1010.96 1011.05 1011.13 1011.21 1011.31 1011.43 1011.59 1011.79 1012.03 1012.30 1012.61 1012.92 1013.23
1002.08 1002.20 1002.29 1002.31 1002.29 1002.22 1002.13 1002.05 1002.02 1002.06 1002.21 1002.47 1002.85 1003.33 1003.91 1004.55 1005.22 1005.89 1006.53 1007.13 1007.66 1008.12 1008.52 1008.86 1009.14 1009.38 1009.59 1009.78 1009.94 1010.09 1010.23 1010.36 1010.48 1010.60 1010.72 1010.86 1011.01 1011.19 1011.41 1011.65 1011.92 1012.20 1012.49 1012.78
1002.31 1002.43 1002.48 1002.45 1002.33 1002.14 1001.92 1001.69 1001.50 1001.39 1001.38 1001.51 1001.78 1002.18 1002.69 1003.30 1003.96 1004.65 1005.33 1005.97 1006.56 1007.09 1007.54 1007.93 1008.26 1008.54 1008.78 1009.00 1009.19 1009.37 1009.55 1009.71 1009.88 1010.05 1010.22 1010.40 1010.59 1010.80 1011.03 1011.28 1011.54 1011.81 1012.09 1012.35
1002.59 1002.68 1002.68 1002.57 1002.35 1002.05 1001.69 1001.32 1000.98 1000.72 1000.58 1000.57 1000.73 1001.04 1001.49 1002.05 1002.69 1003.38 1004.07 1004.75 1005.38 1005.94 1006.44 1006.88 1007.25 1007.57 1007.85 1008.11 1008.34 1008.56 1008.78 1009.00 1009.21 1009.43 1009.66 1009.89 1010.13 1010.37 1010.63 1010.88 1011.15 1011.41 1011.67 1011.91
1002.77 1002.82 1002.76 1002.57 1002.27 1001.86 1001.39 1000.90 1000.44 1000.06 999.80 999.69 999.75 999.97 1000.35 1000.86 1001.46 1002.13 1002.81 1003.50 1004.14 1004.74 1005.27 1005.73 1006.14 1006.50 1006.82 1007.11 1007.38 1007.65 1007.92 1008.19 1008.46 1008.74 1009.02 1009.30 1009.59 1009.87 1010.15 1010.43 1010.70 1010.96 1011.21 1011.45
1002.76 1002.76 1002.63 1002.38 1002.00 1001.52 1000.97 1000.40 999.87 999.41 999.07 998.88 998.86 999.01 999.33 999.78 1000.33 1000.96 1001.62 1002.28 1002.92 1003.52 1004.06 1004.54 1004.97 1005.35 1005.70 1006.02 1006.34 1006.65 1006.97 1007.30 1007.63 1007.96 1008.30 1008.64 1008.97 1009.29 1009.61 1009.90 1010.19 1010.46 1010.72 1010.97
1002.51 1002.45 1002.27 1001.97 1001.54 1001.02 1000.43 999.83 999.26 998.77 998.39 998.16 998.10 998.20 998.46 998.86 999.36 999.93 1000.55 1001.17 1001.78 1002.35 1002.88 1003.35 1003.79 1004.18 1004.55 1004.91 1005.26 1005.61 1005.98 1006.36 1006.74 1007.13 1007.53 1007.92 1008.30 1008.66 1009.01 1009.34 1009.65 1009.94 1010.21 1010.47
1002.07 1001.95 1001.72 1001.38 1000.93 1000.40 999.81 999.22 998.66 998.17 997.80 997.56 997.48 997.56 997.78 998.13 998.58 999.10 999.66 1000.23 1000.78 1001.31 1001.80 1002.26 1002.68 1003.07 1003.45 1003.83 1004.21 1004.60 1005.00 1005.43 1005.86 1006.31 1006.75 1007.19 1007.61 1008.02 1008.41 1008.77 1009.11 1009.43 1009.73 1010.02
1001.50 1001.33 1001.06 1000.70 1000.24 999.72 999.17 998.62 998.10 997.66 997.32 997.11 997.04 997.11 997.31 997.62 998.02 998.48 998.98 999.49 999.98 1000.46 1000.91 1001.33 1001.72 1002.10 1002.48 1002.87 1003.26 1003.68 1004.12 1004.58 1005.06 1005.55 1006.03 1006.52 1006.98 1007.43 1007.85 1008.25 1008.62 1008.98 1009.32 1009.65
1000.91 1000.68 1000.38 1000.00 999.55 999.06 998.56 998.06 997.61 997.24 996.96 996.80 996.76 996.84 997.04 997.32 997.68 998.09 998.53 998.98 999.41 999.83 1000.23 1000.61 1000.98 1001.34 1001.71 1002.10 1002.51 1002.94 1003.41 1003.89 1004.40 1004.92 1005.44 1005.96 1006.46 1006.94 1007.39 1007.83 1008.24 1008.63 1009.01 1009.39
Thickness
5685 5688 5686 5678 5672 5666 5651 5640 5623 5622 5624 5629 5634 5635 5637 5636 5637 5638 5639 5639 5639 5638 5637 5637 5639 5641 5644 5646 5647 5649 5649 5649 5648 5649 5648 5648 5648 5648 5648 5648 5648 5648 5648 5648
5676 5681 5679 5670 5666 5657 5649 5640 5631 5625 5621 5628 5634 5634 5629 5627 5628 5628 5629 5630 5630 5630 5629 5629 5630 5633 5635 5636 5638 5640 5640 5640 5640 5640 5639 5639 5639 5639 5639 5638 5638 5638 5637 5635
5664 5673 5667 5652 5657 5648 5641 5636 5629 5616 5615 5622 5621 5619 5618 5619 5619 5618 5619 5619 5619 5620 5620 5620 5622 5625 5627 5629 5631 5631 5631 5631 5631 5630 5629 5629 5630 5628 5627 5626 5626 5626 5625 5623
5660 5659 5638 5657 5665 5654 5641 5637 5634 5628 5624 5621 5618 5617 5617 5616 5613 5612 5612 5612 5612 5613 5614 5615 5617 5619 5621 5623 5623 5623 5622 5621 5621 5620 5619 5618 5617 5615 5614 5613 5613 5612 5612 5611
5655 5651 5654 5663 5662 5652 5638 5633 5638 5630 5627 5624 5622 5615 5612 5613 5612 5609 5609 5608 5608 5609 5610 5610 5611 5613 5615 5615 5615 5614 5613 5612 5611 5610 5609 5607 5605 5603 5602 5602 5601 5602 5601 5601
5655 5644 5640 5661 5665 5662 5645 5630 5638 5635 5629 5626 5621 5608 5610 5616 5613 5611 5608 5606 5606 5607 5607 5606 5606 5607 5607 5607 5607 5606 5606 5604 5603 5602 5601 5599 5596 5594 5592 5591 5591 5591 5590 5589
5656 5654 5662 5672 5670 5660 5634 5630 5638 5638 5635 5631 5623 5616 5615 5615 5611 5608 5605 5604 5604 5605 5603 5602 5602 5602 5601 5600 5599 5599 5598 5597 5595 5595 5594 5592 5589 5587 5584 5582 5581 5580 5578 5577
5663 5653 5654 5669 5667 5653 5645 5646 5644 5642 5641 5636 5629 5623 5619 5615 5609 5606 5604 5603 5603 5601 5599 5598 5598 5597 5594 5592 5592 5592 5590 5589 5588 5587 5588 5586 5583 5580 5578 5576 5574 5573 5570 5567
5665 5662 5669 5674 5668 5664 5660 5651 5647 5645 5645 5639 5631 5624 5620 5614 5609 5606 5604 5603 5602 5599 5596 5594 5593 5592 5588 5586 5586 5585 5583 5582 5581 5580 5579 5578 5576 5574 5572 5571 5569 5567 5564 5560
5664 5668 5672 5674 5673 5670 5664 5657 5653 5650 5647 5642 5634 5628 5622 5616 5611 5607 5605 5602 5600 5597 5593 5590 5589 5588 5585 5583 5581 5580 5578 5576 5574 5573 5572 5571 5570 5569 5567 5565 5563 5561 5558 5554
5658 5666 5668 5670 5671 5672 5668 5663 5656 5653 5650 5644 5637 5631 5625 5618 5613 5610 5606 5603 5599 5595 5592 5589 5586 5584 5583 5581 5579 5577 5575 5574 5572 5569 5567 5564 5563 5560 5559 5556 5554 5552 5550 5548
5652 5664 5663 5666 5672 5674 5668 5661 5656 5651 5648 5645 5639 5633 5628 5622 5617 5611 5607 5604 5600 5596 5592 5589 5585 5582 5581 5579 5577 5575 5573 5571 5570 5568 5565 5562 5559 5555 5548 5547 5543 5541 5539 5538
5662 5667 5668 5670 5672 5673 5670 5665 5659 5652 5647 5643 5640 5635 5630 5624 5618 5612 5608 5603 5600 5596 5593 5589 5585 5582 5580 5578 5576 5574 5572 5570 5569 5567 5564 5561 5558 5554 5549 5541 5537 5534 5532 5529
5663 5661 5659 5662 5664 5668 5669 5667 5662 5655 5649 5644 5639 5634 5629 5624 5618 5612 5607 5604 5600 5597 5593 5589 5586 5582 5581 5578 5575 5573 5572 5569 5568 5566 5564 5562 5559 5556 5553 5547 5540 5535 5529 5523
5664 5663 5663 5666 5667 5667 5665 5663 5658 5652 5647 5642 5638 5632 5626 5621 5615 5611 5607 5604 5600 5595 5591 5588 5585 5582 5580 5578 5574 5571 5571 5570 5567 5567 5565 5563 5560 5558 5555 5550 5545 5540 5533 5523
5664 5664 5664 5664 5663 5663 5661 5657 5653 5649 5645 5639 5634 5630 5625 5620 5615 5610 5606 5602 5597 5592 5589 5586 5583 5581 5579 5576 5573 5570 5568 5562 5562 5562 5562 5561 5557 5556 5553 5548 5543 5539 5533 5525
5659 5657 5657 5656 5658 5658 5656 5655 5652 5648 5644 5638 5632 5628 5623 5618 5613 5608 5604 5601 5596 5592 5589 5585 5582 5580 5577 5574 5571 5569 5568 5564 5557 5556 5557 5558 5556 5552 5548 5543 5539 5535 5530 5521
5662 5657 5655 5653 5652 5652 5652 5653 5652 5648 5643 5639 5633 5626 5620 5615 5610 5606 5603 5600 5595 5591 5588 5585 5582 5579 5576 5573 5569 5567 5566 5564 5557 5555 5554 5554 5552 5548 5544 5541 5537 5532 5526 5516
5654 5650 5648 5646 5645 5645 5645 5646 5648 5647 5645 5640 5633 5626 5620 5615 5610 5605 5601 5597 5593 5588 5586 5585 5581 5578 5575 5572 5569 5563 5561 5561 5559 5555 5552 5548 5545 5544 5540 5537 5534 5530 5525 5518
5645 5642 5640 5638 5638 5637 5636 5638 5641 5642 5643 5641 5634 5627 5621 5615 5609 5603 5598 5595 5594 5592 5589 5585 5582 5577 5575 5572 5567 5565 5562 5558 5556 5555 5552 5549 5546 5542 5539 5536 5532 5527 5521 5514
5634 5632 5630 5628 5627 5628 5628 5630 5631 5635 5639 5640 5634 5628 5622 5616 5609 5603 5596 5593 5594 5593 5590 5586 5583 5580 5576 5572 5566 5565 5562 5560 5556 5553 5551 5549 5546 5543 5540 5535 5530 5523 5515 5508
5621 5620 5619 5618 5617 5618 5621 5623 5625 5629 5635 5637 5636 5631 5623 5615 5610 5603 5599 5595 5595 5592 5590 5589 5586 5582 5578 5573 5570 5566 5563 5559 5557 5555 5552 5549 5546 5543 5539 5533 5526 5518 5510 5502
5606 5607 5606 5606 5607 5608 5612 5615 5618 5622 5628 5632 5633 5630 5624 5619 5613 5605 5599 5598 5595 5592 5590 5590 5587 5584 5577 5573 5571 5568 5564 5561 5558 5556 5553 5550 5546 5542 5536 5529 5521 5512 5505 5498
5593 5594 5596 5597 5597 5598 5600 5605 5610 5614 5621 5626 5630 5629 5625 5619 5613 5611 5607 5601 5596 5592 5590 5589 5585 5581 5575 5575 5572 5569 5566 5563 5560 5556 5554 5550 5546 5540 5533 5524 5515 5508 5502 5496
5583 5584 5586 5586 5586 5588 5591 5596 5600 5605 5610 5617 5622 5625 5624 5621 5616 5612 5607 5603 5597 5592 5590 5587 5582 5577 5575 5575 5573 5570 5567 5565 5562 5559 5554 5549 5543 5535 5526 5518 5511 5505 5499 5494
5574 5574 5576 5576 5577 5578 5581 5585 5589 5593 5598 5604 5611 5616 5617 5617 5614 5611 5606 5602 5598 5592 5589 5588 5581 5575 5576 5575 5573 5571 5568 5566 5562 5557 5553 5547 5539 5530 5521 5513 5507 5501 5496 5491
5564 5565 5566 5567 5570 5572 5575 5577 5580 5584 5588 5590 5594 5601 5606 5607 5607 5605 5603 5600 5597 5592 5590 5588 5584 5579 5577 5575 5574 5571 5569 5566 5563 5557 5550 5541 5532 5524 5516 5509 5503 5499 5495 5489